CW4525 Weather Reports


Display with metric or nautical units.
time (UTC)temp
F
wind
direction
speed
MPH
gust
MPH
rain 1hr
in
rain 24hr
in
rain mn
in
humidity
%
barometer
mb
20260831041511 66 284 1.0 3.0 0.00 0.00 0.00 79 1013.3
20260831040007 67 302 2.0 5.0 0.00 0.00 0.00 78 1013.3
20260831034505 67 266 1.0 8.0 0.00 0.00 0.00 77 1013.4
20260831033010 68 312 1.0 6.0 0.00 0.00 0.00 76 1013.3
20260831031516 68 314 4.0 9.0 0.00 0.00 0.00 76 1013.3
20260831030005 69 238 4.0 9.0 0.00 0.00 0.00 75 1013.5
20260831024504 69 322 2.0 9.0 0.00 0.00 0.00 74 1013.5
20260831023003 70 329 5.0 9.0 0.00 0.00 0.00 73 1013.2
20260831021509 70 317 3.0 8.0 0.00 0.00 0.00 73 1013.3
20260831020004 70 295 4.0 14.0 0.00 0.00 0.00 73 1013.3
20260831014502 70 237 5.0 9.0 0.00 0.00 0.00 73 1013.2
20260831013002 70 294 2.0 8.0 0.00 0.00 0.00 73 1013.1
20260831011502 70 279 2.0 10.0 0.00 0.00 0.00 73 1012.8
20260831010001 70 256 3.0 11.0 0.00 0.00 0.00 74 1012.7
20260831004600 70 281 4.0 12.0 0.00 0.00 0.00 74 1012.4
20260831003103 70 242 4.0 11.0 0.00 0.00 0.00 73 1012.1
20260831001608 71 242 6.0 13.0 0.00 0.00 0.00 71 1012.1
20260830234603 71 213 4.0 10.0 0.00 0.00 0.00 69 1011.7
20260830233058 71 274 5.0 8.0 0.00 0.00 0.00 68 1011.7
20260830231558 72 232 3.0 8.0 0.00 0.00 0.00 67 1011.7
20260830230057 72 217 4.0 9.0 0.00 0.00 0.00 66 1011.7
20260830224558 72 202 3.0 6.0 0.00 0.00 0.00 65 1011.9
20260830223055 73 198 4.0 7.0 0.00 0.00 0.00 63 1012.1
20260830221554 73 185 2.0 8.0 0.00 0.00 0.00 62 1012.0
20260830220058 73 238 3.0 7.0 0.00 0.00 0.00 61 1012.2
20260830214614 74 209 6.0 11.0 0.00 0.00 0.00 59 1012.2
20260830213054 75 227 6.0 12.0 0.00 0.00 0.00 57 1012.1
20260830211557 75 239 6.0 12.0 0.00 0.00 0.00 55 1012.1
20260830210053 76 251 7.0 15.0 0.00 0.00 0.00 55 1012.3
20260830204550 77 236 3.0 8.0 0.00 0.00 0.00 55 1012.3
20260830203053 78 242 2.0 7.0 0.00 0.00 0.00 55 1012.3
20260830201549 78 233 4.0 11.0 0.00 0.00 0.00 54 1012.6
20260830200058 77 242 6.0 10.0 0.00 0.00 0.00 53 1012.7
20260830194548 77 258 7.0 15.0 0.00 0.00 0.00 51 1012.8
20260830193109 77 290 3.0 9.0 0.00 0.00 0.00 57 1013.0
20260830191545 77 248 1.0 6.0 0.00 0.00 0.00 57 1013.2
20260830190043 77 255 4.0 7.0 0.00 0.00 0.00 55 1013.3
20260830184542 77 265 4.0 9.0 0.00 0.00 0.00 54 1013.3
20260830183041 77 299 5.0 10.0 0.00 0.00 0.00 54 1013.5
20260830181540 77 230 6.0 14.0 0.00 0.00 0.00 55 1013.8
20260830180039 76 223 3.0 7.0 0.00 0.00 0.00 60 1013.9
20260830174540 75 317 1.0 5.0 0.00 0.00 0.00 63 1014.0
20260830173049 74 313 2.0 5.0 0.00 0.00 0.00 65 1014.3
20260830171528 74 11 1.0 5.0 0.00 0.00 0.00 65 1014.2
20260830170028 73 322 1.0 5.0 0.00 0.00 0.00 66 1014.4
20260830164521 72 272 1.0 7.0 0.00 0.00 0.00 69 1014.5
20260830163031 71 249 6.0 14.0 0.00 0.00 0.00 68 1014.7
20260830161519 70 212 5.0 12.0 0.00 0.00 0.00 68 1014.8
20260830160018 70 267 5.0 11.0 0.00 0.00 0.00 68 1014.9
20260830154520 70 257 3.0 9.0 0.00 0.00 0.00 68 1014.9
20260830153016 71 249 3.0 12.0 0.00 0.00 0.00 68 1015.0
20260830151516 71 250 4.0 10.0 0.00 0.00 0.00 66 1015.1
20260830150016 71 245 6.0 13.0 0.00 0.00 0.00 65 1015.3
20260830144520 71 217 6.0 11.0 0.00 0.00 0.00 65 1015.2
20260830143016 72 257 5.0 16.0 0.00 0.00 0.00 63 1015.1
20260830141514 72 222 5.0 14.0 0.00 0.00 0.00 61 1015.1
20260830140011 72 262 6.0 13.0 0.00 0.00 0.00 64 1015.4
20260830134509 71 247 5.0 10.0 0.00 0.00 0.00 64 1015.5
20260830133006 71 181 5.0 11.0 0.00 0.00 0.00 65 1015.4
20260830131502 69 259 6.0 12.0 0.00 0.00 0.00 66 1015.4
20260830130058 67 262 5.0 9.0 0.00 0.00 0.00 71 1015.5
20260830124553 66 220 2.0 8.0 0.00 0.00 0.00 74 1015.6
20260830123050 64 232 4.0 8.0 0.00 0.00 0.00 75 1015.7
20260830121546 63 228 4.0 7.0 0.00 0.00 0.00 76 1015.9
20260830120044 63 219 1.0 6.0 0.00 0.00 0.00 76 1015.7
20260830114556 62 215 5.0 9.0 0.00 0.00 0.00 77 1016.1
20260830113036 61 215 2.0 6.0 0.00 0.00 0.00 78 1016.0
20260830111534 61 227 0.0 4.0 0.00 0.00 0.00 78 1016.1
20260830110038 61 231 1.0 5.0 0.00 0.00 0.00 78 1016.0
20260830104530 60 235 2.0 6.0 0.00 0.00 0.00 78 1015.7
20260830103039 60 234 1.0 6.0 0.00 0.00 0.00 78 1015.8
20260830101527 60 211 1.0 3.0 0.00 0.00 0.00 78 1015.9
20260830100034 60 210 3.0 8.0 0.00 0.00 0.00 78 1015.9
20260830094525 60 200 2.0 6.0 0.00 0.00 0.00 78 1015.9
20260830093047 60 209 2.0 6.0 0.00 0.00 0.00 78 1016.0
20260830091524 60 245 2.0 4.0 0.00 0.00 0.00 78 1016.1
20260830090023 60 246 0.0 2.0 0.00 0.00 0.00 78 1016.1
20260830084521 60 233 0.0 5.0 0.00 0.00 0.00 77 1016.3
20260830083021 60 192 1.0 5.0 0.00 0.00 0.00 77 1016.4
20260830081522 60 232 2.0 6.0 0.00 0.00 0.00 76 1016.4
20260830080020 61 228 2.0 5.0 0.00 0.00 0.00 75 1016.5
20260830074521 61 236 2.0 6.0 0.00 0.00 0.00 74 1016.5
20260830073018 61 199 3.0 7.0 0.00 0.00 0.00 74 1016.5
20260830071518 60 230 3.0 6.0 0.00 0.00 0.00 75 1016.5
20260830070021 60 236 1.0 6.0 0.00 0.00 0.00 75 1016.3
20260830064519 60 214 3.0 8.0 0.00 0.00 0.00 75 1016.2
20260830063016 60 213 4.0 9.0 0.00 0.00 0.00 75 1016.2
20260830061514 60 227 4.0 8.0 0.00 0.00 0.00 75 1016.5
20260830060011 60 249 4.0 8.0 0.00 0.00 0.00 75 1016.6
20260830054508 60 271 4.0 8.0 0.00 0.00 0.00 74 1016.7
20260830053008 60 211 4.0 8.0 0.00 0.00 0.00 74 1016.7
20260830051507 60 238 4.0 9.0 0.00 0.00 0.00 75 1017.0
20260830050006 60 236 3.0 7.0 0.00 0.00 0.00 74 1016.9
20260830044504 60 228 4.0 6.0 0.00 0.00 0.00 74 1016.8
20260830043002 60 207 1.0 8.0 0.00 0.00 0.00 73 1017.0